CORIOLIS

Last updated on Tue Sep 16 2025 00:03:34 GMT+0000 (Coordinated Universal Time)

1 27640U 03001A 25258.58496196 .00000118 00000+0 76288-4 0 9997 2 27640 98.7162 264.6773 0012941 285.3412 74.6334 14.19822804175257
UTC large
Height (km)
Speed (km/s)
/
Latitude / Longitude
Inclination (degrees)
Orbital Period (minutes)
Azimuth
Elevation
Range (km)
Doppler Factor

Next 0 passes for location: London (51.5072 / 0.1276)

Sorry there are no passes over London.